{"data":{"norad_id":60198,"intl_designator":"2024-124R","name":"STARLINK-32046","alt_names":[],"object_type":"PAYLOAD","status":"ACTIVE","operator":null,"country":"US","launch_date":"2024-07-03","launch_site_code":"AFETR","launch_vehicle":null,"mission":null,"orbit_class":"UNKNOWN","rcs_meters":null,"size_class":null,"mass_kg":null,"dimensions":null,"purposes":["comms"],"wikipedia_slug":null,"has_3d_model":false,"image_url":null,"decayed_at":null,"tle_current":{"epoch":"2026-09-21T21:18:12.128832Z","epoch_age_seconds":61660,"freshness":"FRESH","line1":"1 60198U 24124R   26264.88764038 -.00000722  00000+0 -11493-4 0  9995","line2":"2 60198  53.1591 129.8157 0001468 102.1512 257.9654 15.31698252125585","mean_motion":15.31698252,"eccentricity":0.0001468,"inclination_deg":53.1591,"raan_deg":129.8157,"arg_perigee_deg":102.1512,"mean_anomaly_deg":257.9654,"bstar":-1.1493e-5,"rev_number":12558,"period_min":94.013295250532,"perigee_km":469.73979001981,"apogee_km":471.75062183547,"semimajor_km":6848.8822059276,"source":"CELESTRAK","updated_at":"2026-09-22T09:00:49.184764Z"}}}